Location: Leuk
(46.3174°N, 7.6341°E)
Time: 18:27:43
(UTC+00:00)

Cosmos 1190 Rocket - Pass Details

Date: 09 March 2021
Orbit: 757 x 779 km, 74.1° (Epoch: 15 April)

Event Time Altitude Azimuth Distance (km) Brightness Sun altitude
Rises 04:16:18 0° 190° (S) 3,248 7.0 -17.6°
Reaches altitude 10° 04:18:41 10° 188° (S) 2,325 6.3 -17.2°
Maximum altitude 04:23:54 64° 107° (ESE) 860 4.5 -16.3°
Drops below altitude 10° 04:29:09 10° 27° (NNE) 2,336 7.0 -15.4°
Sets 04:31:33 0° 25° (NNE) 3,265 7.8 -15.0°
